Location: ??????
(55.0357°N, 38.6195°E)
Time: 05:26:07
(UTC+00:00)

ATLAS 5 CENTAUR R/B - Visible Passes

Search period start: 13 July 2024 00:00
Search period end: 23 July 2024 00:00
Orbit: 417 x 1167 km, 63.3° (Epoch: 12 July)

Date Brightness Start Highest point End Pass type
(mag) Time Alt. Az. Time Alt. Az. Time Alt. Az.
13 Jul 0.9 19:03:50 10° SW 19:07:13 81° SE 19:11:08 10° NE visible
13 Jul 3.3 20:48:05 10° W 20:51:22 31° NNW 20:55:12 10° NE visible
13 Jul 3.8 22:32:37 10° NW 22:36:08 28° N 22:40:17 10° ENE visible
14 Jul 3.1 20:17:21 10° W 20:20:41 34° NNW 20:24:32 10° NE visible
14 Jul 3.9 22:01:59 10° NW 22:05:24 27° N 22:09:26 10° ENE visible
14 Jul 2.9 23:45:46 10° NW 23:49:58 49° NNE 23:55:08 10° ESE visible
15 Jul 2.8 19:46:38 10° W 19:49:58 38° NNW 19:53:53 10° NE visible
15 Jul 3.9 21:31:18 10° WNW 21:34:39 26° N 21:38:35 10° ENE visible
15 Jul 3.1 23:15:12 10° NW 23:19:17 43° NNE 23:24:17 10° E visible
16 Jul 2.5 19:15:53 10° WSW 19:19:16 44° NNW 19:23:13 10° NE visible
16 Jul 3.8 21:00:34 10° WNW 21:03:53 26° N 21:07:45 10° ENE visible
16 Jul 3.3 22:44:36 10° NW 22:48:34 38° NNE 22:53:22 10° E visible
17 Jul 2.1 18:45:10 10° WSW 18:48:33 53° NNW 18:52:32 10° NE visible
17 Jul 3.8 20:29:48 10° WNW 20:33:05 27° N 20:36:54 10° NE visible
17 Jul 3.4 22:13:58 10° NW 22:17:48 35° NNE 22:22:27 10° E visible
17 Jul 1.9 23:57:29 10° NW 00:02:00 90° NE 00:07:39 10° SE visible
18 Jul 3.7 19:59:00 10° WNW 20:02:16 28° N 20:06:04 10° NE visible
18 Jul 3.6 21:43:18 10° NW 21:47:01 32° NNE 21:51:28 10° E visible
18 Jul 2.0 23:26:51 10° NW 23:31:19 77° NE 23:36:53 10° SE visible
19 Jul 3.5 19:28:10 10° WNW 19:31:26 29° NNW 19:35:15 10° NE visible
19 Jul 3.6 21:12:35 10° NW 21:16:12 30° NNE 21:20:29 10° ENE visible
19 Jul 2.3 22:56:13 10° NW 23:00:35 65° NE 23:06:03 10° ESE visible
20 Jul 3.3 18:57:18 10° W 19:00:35 31° NNW 19:04:26 10° NE visible
20 Jul 3.7 20:41:50 10° NW 20:45:21 28° N 20:49:30 10° ENE visible
20 Jul 2.5 22:25:32 10° NW 22:29:48 56° NNE 22:35:08 10° ESE visible
21 Jul 2.3 00:09:09 10° WNW 00:13:38 44° SW 00:19:07 10° SSE visible
21 Jul 3.7 20:11:03 10° NW 20:14:28 27° N 20:18:29 10° ENE visible
21 Jul 2.7 21:54:50 10° NW 21:59:01 48° NNE 22:04:10 10° ESE visible
21 Jul 2.0 23:38:23 10° WNW 23:42:55 54° SW 23:48:32 10° SSE visible
22 Jul 3.7 19:40:13 10° WNW 19:43:33 26° N 19:47:29 10° ENE visible
22 Jul 2.9 21:24:06 10° NW 21:28:11 43° NNE 21:33:09 10° E visible
22 Jul 1.9 23:07:37 10° NW 23:12:10 65° SW 23:17:50 10° SE visible
